JST792 YMML-YBSU

Flight info

Callsign JST792
Flight time 1h 52m
Altitude 35000
Route ML H66 IDNER/N0377F190 W214 GOMOL/N0460F360 Q69 SU
Aircraft A321/M-SDE3FGHIRWY/LB1

Departure

Time 2026-05-07 05:10
Airport Melbourne Airport (YMML)

Arrival

Time 2026-05-07 07:03
Airport Sunshine Coast Airport (YBSU)
Time Latitude Longitude Altitude Speed Heading
2026-05-07 04:47 -37.67632 144.84800 376 ft 0 kts 351°
2026-05-07 04:56 -37.67636 144.84801 376 ft 3 kts 351°
2026-05-07 04:56 -37.67659 144.84805 375 ft 1 kts 351°
2026-05-07 04:56 -37.67682 144.84806 374 ft 4 kts 21°
2026-05-07 04:57 -37.67703 144.84793 373 ft 4 kts
2026-05-07 04:57 -37.67720 144.84801 373 ft 4 kts 290°
2026-05-07 04:57 -37.67722 144.84833 373 ft 4 kts 261°
2026-05-07 04:57 -37.67720 144.84849 373 ft 1 kts 261°
2026-05-07 05:01 -37.67721 144.84842 373 ft 3 kts 261°
2026-05-07 05:01 -37.67724 144.84815 372 ft 4 kts 261°
2026-05-07 05:02 -37.67730 144.84763 372 ft 8 kts 261°
2026-05-07 05:02 -37.67739 144.84685 371 ft 10 kts 261°
2026-05-07 05:02 -37.67725 144.84597 370 ft 11 kts 315°
2026-05-07 05:02 -37.67657 144.84571 373 ft 10 kts 351°
2026-05-07 05:03 -37.67595 144.84558 375 ft 9 kts 352°
2026-05-07 05:03 -37.67526 144.84546 377 ft 11 kts 351°
2026-05-07 05:03 -37.67469 144.84497 378 ft 11 kts 292°
2026-05-07 05:03 -37.67476 144.84397 377 ft 13 kts 262°
2026-05-07 05:04 -37.67490 144.84275 374 ft 15 kts 262°
2026-05-07 05:04 -37.67493 144.84141 371 ft 14 kts 296°
2026-05-07 05:04 -37.67408 144.84098 374 ft 13 kts 351°
2026-05-07 05:04 -37.67319 144.84081 376 ft 13 kts 352°
2026-05-07 05:05 -37.67224 144.84065 378 ft 15 kts 351°
2026-05-07 05:05 -37.67119 144.84044 381 ft 15 kts 352°
2026-05-07 05:05 -37.67011 144.84024 385 ft 16 kts 352°
2026-05-07 05:05 -37.66894 144.84003 388 ft 18 kts 352°
2026-05-07 05:06 -37.66767 144.83979 393 ft 18 kts 352°
2026-05-07 05:06 -37.66653 144.83958 393 ft 16 kts 352°
2026-05-07 05:06 -37.66552 144.83939 400 ft 15 kts 352°
2026-05-07 05:06 -37.66439 144.83918 404 ft 18 kts 351°
2026-05-07 05:07 -37.66309 144.83894 411 ft 20 kts 351°
2026-05-07 05:07 -37.66175 144.83867 413 ft 20 kts 351°
2026-05-07 05:07 -37.66046 144.83841 416 ft 18 kts 353°
2026-05-07 05:07 -37.65932 144.83824 416 ft 16 kts 353°
2026-05-07 05:08 -37.65820 144.83803 416 ft 17 kts 351°
2026-05-07 05:08 -37.65707 144.83781 420 ft 13 kts 352°
2026-05-07 05:08 -37.65625 144.83766 419 ft 11 kts 351°
2026-05-07 05:08 -37.65582 144.83707 423 ft 9 kts 273°
2026-05-07 05:09 -37.65593 144.83625 430 ft 10 kts 260°
2026-05-07 05:09 -37.65626 144.83553 421 ft 10 kts 196°
2026-05-07 05:09 -37.65681 144.83558 416 ft 3 kts 169°
2026-05-07 05:09 -37.65797 144.83581 419 ft 48 kts 172°
2026-05-07 05:10 -37.66377 144.83687 405 ft 118 kts 171°
2026-05-07 05:10 -37.67378 144.83856 471 ft 162 kts 179°
2026-05-07 05:10 -37.68451 144.84031 1284 ft 155 kts 179°
2026-05-07 05:10 -37.69596 144.84235 2034 ft 158 kts 178°
2026-05-07 05:11 -37.70652 144.84439 2583 ft 166 kts 178°
2026-05-07 05:11 -37.71864 144.84669 2848 ft 187 kts 178°
2026-05-07 05:11 -37.73212 144.84846 3074 ft 200 kts 188°
2026-05-07 05:11 -37.74411 144.84057 3512 ft 201 kts 229°
2026-05-07 05:12 -37.74915 144.82330 3676 ft 230 kts 264°
2026-05-07 05:12 -37.74889 144.80275 4299 ft 241 kts 269°
2026-05-07 05:12 -37.74779 144.78139 5085 ft 246 kts 270°
2026-05-07 05:12 -37.74349 144.76010 5833 ft 260 kts 292°
2026-05-07 05:13 -37.73169 144.74213 6562 ft 277 kts 318°
2026-05-07 05:13 -37.71364 144.73213 7231 ft 295 kts 348°
2026-05-07 05:13 -37.69294 144.73439 7876 ft 308 kts 18°
2026-05-07 05:13 -37.67260 144.74396 8531 ft 315 kts 21°
2026-05-07 05:14 -37.65205 144.75420 9222 ft 321 kts 22°
2026-05-07 05:14 -37.63117 144.76473 9974 ft 325 kts 22°
2026-05-07 05:14 -37.60971 144.77556 10380 ft 342 kts 22°
2026-05-07 05:14 -37.58684 144.78702 10537 ft 365 kts 22°
2026-05-07 05:15 -37.56325 144.80118 10679 ft 386 kts 32°
2026-05-07 05:15 -37.54090 144.82057 11094 ft 395 kts 39°
2026-05-07 05:15 -37.51849 144.84145 11621 ft 402 kts 39°
2026-05-07 05:15 -37.49575 144.86247 12175 ft 409 kts 39°
2026-05-07 05:16 -37.47262 144.88375 12722 ft 415 kts 39°
2026-05-07 05:16 -37.44912 144.90533 13293 ft 421 kts 39°
2026-05-07 05:16 -37.42526 144.92725 13855 ft 427 kts 39°
2026-05-07 05:16 -37.40108 144.94949 14382 ft 433 kts 39°
2026-05-07 05:17 -37.37665 144.97196 14936 ft 437 kts 39°
2026-05-07 05:17 -37.35201 144.99462 15510 ft 441 kts 39°
2026-05-07 05:17 -37.32715 145.01746 16111 ft 444 kts 39°
2026-05-07 05:17 -37.30209 145.04050 16647 ft 449 kts 39°
2026-05-07 05:18 -37.27677 145.06377 17207 ft 452 kts 39°
2026-05-07 05:18 -37.25126 145.08711 17784 ft 456 kts 39°
2026-05-07 05:18 -37.22552 145.11064 18325 ft 459 kts 39°
2026-05-07 05:18 -37.19964 145.13434 18829 ft 463 kts 39°
2026-05-07 05:19 -37.17353 145.15823 19327 ft 466 kts 39°
2026-05-07 05:19 -37.14727 145.18222 19831 ft 469 kts 39°
2026-05-07 05:19 -37.12076 145.20638 20343 ft 472 kts 38°
2026-05-07 05:19 -37.09415 145.23061 20839 ft 475 kts 38°
2026-05-07 05:20 -37.06740 145.25519 21292 ft 478 kts 40°
2026-05-07 05:20 -37.04118 145.28078 21779 ft 480 kts 42°
2026-05-07 05:20 -37.01536 145.30748 22213 ft 482 kts 44°
2026-05-07 05:20 -36.98975 145.33480 22661 ft 485 kts 44°
2026-05-07 05:21 -36.96408 145.36236 23108 ft 488 kts 44°
2026-05-07 05:21 -36.91187 145.41745 23925 ft 494 kts 43°
2026-05-07 05:21 -36.88531 145.44494 24290 ft 497 kts 42°
2026-05-07 05:22 -36.85857 145.47237 24652 ft 499 kts 42°
2026-05-07 05:22 -36.83168 145.49982 25014 ft 501 kts 42°
2026-05-07 05:22 -36.80464 145.52742 25400 ft 503 kts 43°
2026-05-07 05:22 -36.77748 145.55512 25730 ft 506 kts 43°
2026-05-07 05:23 -36.75019 145.58297 26072 ft 508 kts 43°
2026-05-07 05:23 -36.72277 145.61098 26417 ft 510 kts 43°
2026-05-07 05:23 -36.69530 145.63907 26761 ft 512 kts 43°
2026-05-07 05:23 -36.66773 145.66730 27095 ft 514 kts 43°
2026-05-07 05:24 -36.64003 145.69564 27416 ft 516 kts 43°
2026-05-07 05:24 -36.61220 145.72411 27725 ft 519 kts 43°
2026-05-07 05:24 -36.58426 145.75266 28038 ft 521 kts 43°
2026-05-07 05:24 -36.55622 145.78128 28360 ft 523 kts 43°
2026-05-07 05:25 -36.52800 145.81000 28686 ft 526 kts 43°
2026-05-07 05:25 -36.49959 145.83884 28979 ft 529 kts 43°
2026-05-07 05:25 -36.47104 145.86780 29275 ft 531 kts 43°
2026-05-07 05:25 -36.44236 145.89684 29576 ft 533 kts 43°
2026-05-07 05:26 -36.41362 145.92590 30019 ft 532 kts 42°
2026-05-07 05:26 -36.38494 145.95489 30435 ft 531 kts 43°
2026-05-07 05:26 -36.35636 145.98376 30820 ft 530 kts 43°
2026-05-07 05:26 -36.32780 146.01257 31193 ft 529 kts 43°
2026-05-07 05:27 -36.29931 146.04128 31544 ft 527 kts 42°
2026-05-07 05:27 -36.27081 146.07000 31923 ft 527 kts 43°
2026-05-07 05:27 -36.24238 146.09862 32265 ft 527 kts 43°
2026-05-07 05:27 -36.21397 146.12723 32626 ft 526 kts 43°
2026-05-07 05:28 -36.18561 146.15579 32987 ft 525 kts 43°
2026-05-07 05:28 -36.15730 146.18429 33348 ft 524 kts 43°
2026-05-07 05:28 -36.12902 146.21274 33686 ft 523 kts 43°
2026-05-07 05:28 -36.10084 146.24105 34048 ft 522 kts 43°
2026-05-07 05:29 -36.07262 146.26931 34379 ft 521 kts 43°
2026-05-07 05:29 -36.04447 146.29741 34688 ft 520 kts 42°
2026-05-07 05:29 -36.01631 146.32545 35015 ft 519 kts 42°
2026-05-07 05:29 -35.98821 146.35344 35176 ft 520 kts 41°
2026-05-07 05:30 -35.96011 146.38145 35232 ft 519 kts 41°
2026-05-07 05:30 -35.90406 146.43727 35234 ft 517 kts 41°
2026-05-07 05:31 -35.84805 146.49301 35227 ft 517 kts 41°
2026-05-07 05:31 -35.79204 146.54872 35229 ft 517 kts 41°
2026-05-07 05:32 -35.73603 146.60428 35229 ft 517 kts 41°
2026-05-07 05:32 -35.67983 146.65975 35231 ft 518 kts 41°
2026-05-07 05:33 -35.62368 146.71526 35239 ft 518 kts 41°
2026-05-07 05:33 -35.56749 146.77072 35241 ft 518 kts 41°
2026-05-07 05:34 -35.51155 146.82565 35223 ft 518 kts 41°
2026-05-07 05:34 -35.45522 146.88097 35254 ft 519 kts 41°
2026-05-07 05:35 -35.39874 146.93633 35242 ft 520 kts 41°
2026-05-07 05:35 -35.34211 146.99161 35217 ft 521 kts 40°
2026-05-07 05:36 -35.28542 147.04687 35225 ft 521 kts 40°
2026-05-07 05:36 -35.22870 147.10215 35234 ft 522 kts 40°
2026-05-07 05:37 -35.17189 147.15747 35218 ft 522 kts 40°
2026-05-07 05:37 -35.11490 147.21272 35213 ft 523 kts 40°
2026-05-07 05:38 -35.05789 147.26784 35222 ft 523 kts 40°
2026-05-07 05:38 -35.00082 147.32310 35209 ft 524 kts 39°
2026-05-07 05:39 -34.94369 147.37836 35215 ft 524 kts 39°
2026-05-07 05:39 -34.88642 147.43352 35235 ft 525 kts 39°
2026-05-07 05:40 -34.82906 147.48856 35205 ft 526 kts 39°
2026-05-07 05:40 -34.77158 147.54370 35206 ft 526 kts 39°
2026-05-07 05:41 -34.71413 147.59892 35211 ft 527 kts 39°
2026-05-07 05:41 -34.66624 147.64477 35199 ft 527 kts 38°
2026-05-07 05:42 -34.60855 147.69982 35243 ft 528 kts 38°
2026-05-07 05:42 -34.55070 147.75492 35238 ft 529 kts 38°
2026-05-07 05:43 -34.49283 147.81001 35212 ft 529 kts 37°
2026-05-07 05:43 -34.43485 147.86506 35216 ft 529 kts 37°
2026-05-07 05:44 -34.37686 147.92003 35229 ft 530 kts 37°
2026-05-07 05:44 -34.31877 147.97498 35174 ft 529 kts 36°
2026-05-07 05:45 -34.26073 148.02983 35186 ft 530 kts 36°
2026-05-07 05:45 -34.20253 148.08476 35203 ft 531 kts 36°
2026-05-07 05:46 -34.14415 148.13968 35190 ft 532 kts 36°
2026-05-07 05:46 -34.08569 148.19457 35210 ft 533 kts 36°
2026-05-07 05:47 -34.02718 148.24953 35225 ft 533 kts 35°
2026-05-07 05:47 -33.96862 148.30442 35221 ft 534 kts 35°
2026-05-07 05:48 -33.90993 148.35921 35225 ft 534 kts 35°
2026-05-07 05:48 -33.85117 148.41392 35223 ft 534 kts 35°
2026-05-07 05:49 -33.79238 148.46873 35204 ft 534 kts 35°
2026-05-07 05:49 -33.73361 148.52337 35244 ft 534 kts 34°
2026-05-07 05:50 -33.67487 148.57789 35249 ft 533 kts 34°
2026-05-07 05:50 -33.61623 148.63221 35211 ft 532 kts 33°
2026-05-07 05:51 -33.55769 148.68637 35225 ft 531 kts 33°
2026-05-07 05:51 -33.49922 148.74029 35229 ft 531 kts 33°
2026-05-07 05:52 -33.44078 148.79402 35196 ft 527 kts 33°
2026-05-07 05:52 -33.38278 148.84741 35218 ft 526 kts 33°
2026-05-07 05:53 -33.32485 148.90068 35226 ft 525 kts 33°
2026-05-07 05:53 -33.26694 148.95378 35186 ft 525 kts 32°
2026-05-07 05:54 -33.20898 149.00682 35208 ft 524 kts 32°
2026-05-07 05:54 -33.15106 149.05972 35219 ft 524 kts 32°
2026-05-07 05:55 -33.09336 149.11237 35167 ft 522 kts 31°
2026-05-07 05:55 -33.03561 149.16489 35183 ft 522 kts 30°
2026-05-07 05:56 -32.97786 149.21734 35198 ft 522 kts 31°
2026-05-07 05:56 -32.92005 149.26973 35156 ft 522 kts 30°
2026-05-07 05:57 -32.86230 149.32207 35208 ft 521 kts 30°
2026-05-07 05:57 -32.80469 149.37418 35217 ft 520 kts 29°
2026-05-07 05:58 -32.74722 149.42613 35215 ft 519 kts 30°
2026-05-07 05:58 -32.68996 149.47777 35217 ft 515 kts 28°
2026-05-07 05:59 -32.63292 149.52905 35219 ft 513 kts 28°
2026-05-07 05:59 -32.57616 149.57999 35218 ft 510 kts 28°
2026-05-07 06:00 -32.51936 149.62993 35199 ft 505 kts 26°
2026-05-07 06:00 -32.46227 149.67772 35216 ft 501 kts 24°
2026-05-07 06:01 -32.40525 149.72486 35210 ft 499 kts 25°
2026-05-07 06:01 -32.34856 149.77219 35165 ft 498 kts 25°
2026-05-07 06:02 -32.29222 149.81957 35202 ft 496 kts 25°
2026-05-07 06:02 -32.23604 149.86670 35197 ft 495 kts 24°
2026-05-07 06:03 -32.17994 149.91363 35176 ft 492 kts 24°
2026-05-07 06:03 -32.12407 149.96029 35169 ft 492 kts 24°
2026-05-07 06:04 -32.06817 150.00688 35169 ft 492 kts 24°
2026-05-07 06:04 -32.01260 150.05318 35174 ft 493 kts 24°
2026-05-07 06:05 -31.95656 150.09970 35123 ft 492 kts 23°
2026-05-07 06:05 -31.90069 150.14598 35180 ft 491 kts 23°
2026-05-07 06:06 -31.84499 150.19212 35180 ft 489 kts 23°
2026-05-07 06:06 -31.78965 150.23802 35171 ft 486 kts 22°
2026-05-07 06:07 -31.73437 150.28371 35147 ft 485 kts 22°
2026-05-07 06:07 -31.67918 150.32922 35167 ft 485 kts 22°
2026-05-07 06:08 -31.62398 150.37461 35182 ft 484 kts 22°
2026-05-07 06:08 -31.56877 150.41998 35133 ft 484 kts 22°
2026-05-07 06:09 -31.51365 150.46523 35179 ft 483 kts 21°
2026-05-07 06:09 -31.45864 150.51036 35185 ft 482 kts 21°
2026-05-07 06:10 -31.40367 150.55537 35184 ft 482 kts 21°
2026-05-07 06:10 -31.34872 150.60028 35149 ft 480 kts 21°
2026-05-07 06:11 -31.29402 150.64491 35173 ft 480 kts 21°
2026-05-07 06:11 -31.23923 150.68950 35181 ft 479 kts 21°
2026-05-07 06:12 -31.18460 150.73398 35186 ft 479 kts 21°
2026-05-07 06:12 -31.13000 150.77839 35173 ft 477 kts 21°
2026-05-07 06:13 -31.07553 150.82261 35187 ft 478 kts 23°
2026-05-07 06:13 -31.04941 150.84746 35194 ft 489 kts 29°
2026-05-07 06:13 -31.02410 150.87385 35191 ft 489 kts 29°
2026-05-07 06:14 -30.97340 150.92678 35188 ft 489 kts 29°
2026-05-07 06:14 -30.92282 150.97945 35140 ft 487 kts 30°
2026-05-07 06:15 -30.87221 151.03205 35151 ft 487 kts 30°
2026-05-07 06:15 -30.82169 151.08445 35159 ft 486 kts 29°
2026-05-07 06:16 -30.77116 151.13674 35102 ft 486 kts 30°
2026-05-07 06:16 -30.72064 151.18897 35130 ft 486 kts 30°
2026-05-07 06:17 -30.67016 151.24115 35128 ft 485 kts 30°
2026-05-07 06:17 -30.61977 151.29315 35135 ft 485 kts 30°
2026-05-07 06:18 -30.56924 151.34514 35051 ft 485 kts 30°
2026-05-07 06:18 -30.51894 151.39682 35088 ft 482 kts 30°
2026-05-07 06:19 -30.46874 151.44831 35117 ft 482 kts 30°
2026-05-07 06:19 -30.41844 151.49988 35112 ft 482 kts 30°
2026-05-07 06:20 -30.36827 151.55123 35066 ft 482 kts 30°
2026-05-07 06:20 -30.31802 151.60256 35066 ft 482 kts 30°
2026-05-07 06:21 -30.26771 151.65393 35089 ft 482 kts 30°
2026-05-07 06:21 -30.21738 151.70523 35088 ft 482 kts 30°
2026-05-07 06:22 -30.16710 151.75641 35092 ft 482 kts 30°
2026-05-07 06:22 -30.09172 151.83306 35085 ft 481 kts 30°
2026-05-07 06:23 -30.04996 151.87543 35083 ft 481 kts 30°
2026-05-07 06:23 -29.99115 151.93504 35095 ft 481 kts 30°
2026-05-07 06:24 -29.94088 151.98582 35054 ft 481 kts 29°
2026-05-07 06:24 -29.89901 152.02807 35062 ft 481 kts 29°
2026-05-07 06:25 -29.86584 152.06160 35446 ft 470 kts 29°
2026-05-07 06:25 -29.84960 152.07824 36089 ft 457 kts 29°
2026-05-07 06:25 -29.82625 152.10247 36643 ft 452 kts 28°
2026-05-07 06:25 -29.80256 152.12663 36073 ft 460 kts 28°
2026-05-07 06:26 -29.77813 152.15082 35395 ft 466 kts 28°
2026-05-07 06:26 -29.75324 152.17527 35108 ft 474 kts 28°
2026-05-07 06:26 -29.70296 152.22507 35050 ft 479 kts 28°
2026-05-07 06:27 -29.65261 152.27568 35048 ft 481 kts 29°
2026-05-07 06:27 -29.60236 152.32642 35041 ft 481 kts 29°
2026-05-07 06:28 -29.55200 152.37689 35002 ft 480 kts 28°
2026-05-07 06:28 -29.50144 152.42723 35022 ft 482 kts 28°
2026-05-07 06:29 -29.45086 152.47769 35032 ft 482 kts 28°
2026-05-07 06:29 -29.40021 152.52821 35068 ft 483 kts 27°
2026-05-07 06:30 -29.34949 152.57867 35039 ft 484 kts 28°
2026-05-07 06:30 -29.29858 152.62923 35003 ft 485 kts 27°
2026-05-07 06:31 -29.24757 152.67972 35025 ft 485 kts 27°
2026-05-07 06:31 -29.19653 152.73043 35027 ft 486 kts 27°
2026-05-07 06:32 -29.14544 152.78113 35026 ft 486 kts 27°
2026-05-07 06:32 -29.09431 152.83166 35014 ft 485 kts 27°
2026-05-07 06:33 -29.04320 152.88208 35033 ft 485 kts 27°
2026-05-07 06:33 -28.99212 152.93235 35035 ft 485 kts 27°
2026-05-07 06:34 -28.94088 152.98266 35040 ft 485 kts 27°
2026-05-07 06:34 -28.88980 153.03276 34988 ft 483 kts 25°
2026-05-07 06:35 -28.86305 153.05514 35003 ft 468 kts 18°
2026-05-07 06:35 -28.83524 153.07364 35007 ft 462 kts 15°
2026-05-07 06:35 -28.77927 153.10986 35026 ft 463 kts 15°
2026-05-07 06:36 -28.72328 153.14619 35018 ft 463 kts 15°
2026-05-07 06:36 -28.66728 153.18258 34988 ft 463 kts 15°
2026-05-07 06:37 -28.61137 153.21889 35013 ft 463 kts 15°
2026-05-07 06:37 -28.55578 153.25487 35021 ft 463 kts 15°
2026-05-07 06:38 -28.49948 153.29122 35027 ft 463 kts 15°
2026-05-07 06:38 -28.44382 153.32721 34987 ft 463 kts 15°
2026-05-07 06:39 -28.38777 153.36332 34990 ft 464 kts 15°
2026-05-07 06:39 -28.33160 153.39945 34987 ft 464 kts 15°
2026-05-07 06:40 -28.27544 153.43564 34992 ft 465 kts 15°
2026-05-07 06:40 -28.21915 153.47184 34960 ft 463 kts 14°
2026-05-07 06:41 -28.19052 153.48695 34961 ft 446 kts
2026-05-07 06:41 -28.16141 153.49708 34967 ft 430 kts 358°
2026-05-07 06:41 -28.13236 153.50240 34969 ft 415 kts 350°
2026-05-07 06:41 -28.10393 153.50339 35003 ft 404 kts 345°
2026-05-07 06:42 -28.04767 153.50256 35015 ft 405 kts 346°
2026-05-07 06:42 -27.99129 153.50202 35022 ft 405 kts 346°
2026-05-07 06:43 -27.93488 153.50155 35027 ft 405 kts 346°
2026-05-07 06:43 -27.87843 153.50099 34877 ft 405 kts 346°
2026-05-07 06:44 -27.85029 153.50069 34647 ft 405 kts 346°
2026-05-07 06:44 -27.82212 153.50038 34392 ft 405 kts 346°
2026-05-07 06:44 -27.79386 153.50005 33660 ft 408 kts 346°
2026-05-07 06:44 -27.76537 153.49966 32886 ft 411 kts 346°
2026-05-07 06:45 -27.73634 153.49931 32082 ft 414 kts 347°
2026-05-07 06:45 -27.70745 153.49901 31270 ft 417 kts 347°
2026-05-07 06:45 -27.67867 153.49872 30420 ft 420 kts 348°
2026-05-07 06:45 -27.64941 153.49842 29714 ft 420 kts 348°
2026-05-07 06:46 -27.62043 153.49822 29218 ft 413 kts 348°
2026-05-07 06:46 -27.59185 153.49806 28694 ft 408 kts 348°
2026-05-07 06:46 -27.56363 153.49783 28165 ft 402 kts 348°
2026-05-07 06:46 -27.53583 153.49756 27637 ft 397 kts 348°
2026-05-07 06:47 -27.50838 153.49724 27106 ft 393 kts 348°
2026-05-07 06:47 -27.48117 153.49692 26582 ft 389 kts 348°
2026-05-07 06:47 -27.45428 153.49663 26066 ft 385 kts 349°
2026-05-07 06:47 -27.42758 153.49635 25532 ft 382 kts 349°
2026-05-07 06:48 -27.40111 153.49607 25055 ft 379 kts 349°
2026-05-07 06:48 -27.37486 153.49580 24563 ft 377 kts 349°
2026-05-07 06:48 -27.34861 153.49557 24069 ft 376 kts 349°
2026-05-07 06:48 -27.32251 153.49535 23580 ft 375 kts 349°
2026-05-07 06:49 -27.29646 153.49512 23047 ft 373 kts 350°
2026-05-07 06:49 -27.27061 153.49492 22580 ft 370 kts 350°
2026-05-07 06:49 -27.24497 153.49474 22133 ft 367 kts 350°
2026-05-07 06:49 -27.21952 153.49454 21690 ft 363 kts 350°
2026-05-07 06:50 -27.19442 153.49429 21263 ft 359 kts 350°
2026-05-07 06:50 -27.16952 153.49403 20842 ft 356 kts 350°
2026-05-07 06:50 -27.14486 153.49380 20413 ft 354 kts 351°
2026-05-07 06:50 -27.12024 153.49356 20006 ft 355 kts 351°
2026-05-07 06:51 -27.09558 153.49330 19588 ft 354 kts 351°
2026-05-07 06:51 -27.07099 153.49304 19169 ft 352 kts 351°
2026-05-07 06:51 -27.04649 153.49282 18737 ft 351 kts 352°
2026-05-07 06:51 -27.02213 153.49259 18298 ft 350 kts 352°
2026-05-07 06:52 -26.99784 153.49236 17820 ft 348 kts 352°
2026-05-07 06:52 -26.97364 153.49215 17372 ft 347 kts 352°
2026-05-07 06:52 -26.94957 153.49196 16912 ft 345 kts 353°
2026-05-07 06:52 -26.92561 153.49176 16474 ft 344 kts 353°
2026-05-07 06:53 -26.90173 153.49155 16022 ft 342 kts 353°
2026-05-07 06:53 -26.87803 153.49131 15547 ft 340 kts 354°
2026-05-07 06:53 -26.85446 153.49106 15072 ft 338 kts 354°
2026-05-07 06:53 -26.83087 153.49081 14429 ft 342 kts 355°
2026-05-07 06:54 -26.80673 153.49054 13690 ft 350 kts 355°
2026-05-07 06:54 -26.78297 153.48839 13456 ft 334 kts 344°
2026-05-07 06:54 -26.76195 153.48012 13239 ft 306 kts 327°
2026-05-07 06:54 -26.74550 153.46643 12602 ft 289 kts 310°
2026-05-07 06:55 -26.73413 153.44841 11808 ft 282 kts 293°
2026-05-07 06:55 -26.72826 153.42776 11024 ft 278 kts 277°
2026-05-07 06:55 -26.72793 153.40635 10254 ft 275 kts 262°
2026-05-07 06:55 -26.73302 153.38579 9455 ft 275 kts 247°
2026-05-07 06:56 -26.74236 153.36724 8642 ft 274 kts 240°
2026-05-07 06:56 -26.75216 153.34896 7855 ft 272 kts 241°
2026-05-07 06:56 -26.76183 153.33079 7100 ft 270 kts 240°
2026-05-07 06:56 -26.77127 153.31303 6607 ft 258 kts 240°
2026-05-07 06:57 -26.78024 153.29613 6138 ft 248 kts 240°
2026-05-07 06:57 -26.78814 153.27922 5513 ft 242 kts 255°
2026-05-07 06:57 -26.78860 153.26095 5070 ft 230 kts 283°
2026-05-07 06:57 -26.78137 153.24543 4539 ft 228 kts 310°
2026-05-07 06:58 -26.76914 153.23424 3937 ft 227 kts 319°
2026-05-07 06:58 -26.75684 153.22379 3587 ft 214 kts 319°
2026-05-07 06:58 -26.74518 153.21385 3463 ft 210 kts 319°
2026-05-07 06:58 -26.73368 153.20401 3390 ft 201 kts 318°
2026-05-07 06:59 -26.72296 153.19486 3130 ft 190 kts 317°
2026-05-07 06:59 -26.71268 153.18603 2811 ft 183 kts 317°
2026-05-07 06:59 -26.70278 153.17751 2550 ft 177 kts 317°
2026-05-07 06:59 -26.69325 153.16930 2309 ft 169 kts 317°
2026-05-07 07:00 -26.68411 153.16145 2074 ft 164 kts 315°
2026-05-07 07:00 -26.67518 153.15378 1878 ft 158 kts 315°
2026-05-07 07:00 -26.66661 153.14642 1668 ft 151 kts 316°
2026-05-07 07:00 -26.65839 153.13933 1454 ft 149 kts 315°
2026-05-07 07:01 -26.65032 153.13234 1259 ft 148 kts 315°
2026-05-07 07:01 -26.64212 153.12524 1056 ft 149 kts 323°
2026-05-07 07:01 -26.63380 153.11804 872 ft 149 kts 324°
2026-05-07 07:01 -26.62580 153.11078 696 ft 147 kts 323°
2026-05-07 07:02 -26.61771 153.10394 453 ft 144 kts 323°
2026-05-07 07:02 -26.60992 153.09735 277 ft 141 kts 321°
2026-05-07 07:02 -26.60218 153.09079 81 ft 140 kts 323°
2026-05-07 07:02 -26.59499 153.08463 22 ft 113 kts 323°
2026-05-07 07:03 -26.59042 153.08082 23 ft 50 kts 322°
2026-05-07 07:03 -26.58902 153.07979 23 ft 15 kts 308°
2026-05-07 07:03 -26.58928 153.07960 24 ft 7 kts 127°
2026-05-07 07:03 -26.58975 153.08020 23 ft 14 kts 135°
2026-05-07 07:04 -26.59080 153.08113 22 ft 26 kts 143°
2026-05-07 07:04 -26.59241 153.08249 21 ft 25 kts 142°
2026-05-07 07:04 -26.59349 153.08281 22 ft 16 kts 214°
2026-05-07 07:04 -26.59404 153.08205 21 ft 13 kts 229°
2026-05-07 07:05 -26.59481 153.08220 21 ft 14 kts 140°
2026-05-07 07:05 -26.59558 153.08286 22 ft 14 kts 143°
2026-05-07 07:05 -26.59643 153.08357 21 ft 16 kts 142°
2026-05-07 07:05 -26.59735 153.08436 23 ft 18 kts 142°
2026-05-07 07:06 -26.59834 153.08520 23 ft 18 kts 143°
2026-05-07 07:06 -26.59902 153.08577 22 ft 19 kts 143°
2026-05-07 07:06 -26.60013 153.08672 22 ft 20 kts 142°
2026-05-07 07:06 -26.60116 153.08761 22 ft 19 kts 142°
2026-05-07 07:07 -26.60216 153.08846 22 ft 16 kts 143°
2026-05-07 07:07 -26.60293 153.08912 21 ft 11 kts 142°
2026-05-07 07:07 -26.60369 153.08908 21 ft 8 kts 208°
2026-05-07 07:07 -26.60397 153.08883 22 ft 7 kts 232°
2026-05-07 07:08 -26.60406 153.08869 21 ft 1 kts 232°
2026-05-07 07:08 -26.60411 153.08863 21 ft 0 kts 232°